Location: *
(49.4547°N, 7.9131°E)
Time: 06:59:12
(UTC+00:00)

Cosmos 1825 Rocket - Pass Details

Date: 22 September 2019
Orbit: 603 x 631 km, 82.5° (Epoch: 22 October)

Event Time Altitude Azimuth Distance (km) Brightness Sun altitude
Rises 20:06:53 0° 351° (N) 2,876 7.6 -25.3°
Reaches altitude 10° 20:09:07 10° 354° (N) 1,965 6.6 -25.6°
Enters shadow 20:12:11 44° 10° (N) 849 4.3 -26.0°
